Terug naar catalogus

COSMOS 2575

ActiefMilitairSSO
NORAD 58929·PAYLOAD·🇷🇺 Russia

Gelanceerd Feb 9, 2024 vanaf Plesetsk Cosmodrome

Loading…

Volgende Passages (komende 24 uur)

TLE

VersSource: Space-Track

Epoch: Sep 14, 2026, 15:00 UTC

1 58929U 24026A   26257.62559328  .00021353  00000-0  14239-3 0  9995
2 58929  96.6003 137.4235 0002616  97.1369 263.0196 15.75377571149711

Volg COSMOS 2575 in realtime met AllMySat

Download on the App Store